Waarnemingen

Advertentie
Mijn weer
Junsele A, Zweden (2243): temperatuur & dauwpunt: 11.12.2018 01:00:00 - 17.12.2018 01:00:00 (CET)Junsele A, Zweden (2243): windsnelheid & windstoten: 11.12.2018 01:00:00 - 17.12.2018 01:00:00 (CET)Junsele A, Zweden (2243): windrichting: 11.12.2018 01:00:00 - 17.12.2018 01:00:00 (CET)Junsele A, Zweden (2243): luchtdruk: 11.12.2018 01:00:00 - 17.12.2018 01:00:00 (CET)Junsele A, Zweden (2243): zicht: 11.12.2018 01:00:00 - 17.12.2018 01:00:00 (CET)Junsele A, Zweden (2243): neerslag: 11.12.2018 01:00:00 - 17.12.2018 01:00:00 (CET)
Datum & Tijd tt [°C] td [°C] ff [km/u] ff [kn] fx [km/u] fx [kn] dd ppp [hPa] vv [km] rr [mm]
17.12.2018 01:00:00 - - - - - - - - - -
17.12.2018 00:00:00 -4,7 -5,3 3 1 9 5 O 1024,3 11 0,0
16.12.2018 23:00:00 -5,0 -5,4 4 2 9 5 O 1024,7 11 0,0
16.12.2018 22:00:00 -5,8 -6,4 3 1 7 4 O 1025,0 16 0,0
16.12.2018 21:00:00 -6,1 -6,6 3 2 6 3 ZO 1025,3 13 0,0
16.12.2018 20:00:00 -6,7 -7,4 2 1 6 3 O - 25 0,0
16.12.2018 19:00:00 -6,9 -7,5 2 1 8 4 O 1025,5 4,7 0,0
16.12.2018 18:00:00 -8,3 -9,1 3 1 5 3 O 1025,9 7 0,0
16.12.2018 17:00:00 -9,4 -10,4 2 1 5 3 NO 1026,2 50 0,0
16.12.2018 16:00:00 -10,0 -11,1 1 1 6 3 N 1026,6 37 0,0
16.12.2018 15:00:00 -10,9 -12,0 3 1 6 3 NNO 1027,2 23 0,0
16.12.2018 14:00:00 -11,5 -12,7 2 1 6 4 N 1027,6 45 0,0
16.12.2018 13:00:00 -12,5 -13,7 3 2 6 4 ONO 1028,2 46 0,0
16.12.2018 12:00:00 -15,7 -17,4 1 1 5 3 O 1029,0 50 0,0
16.12.2018 11:00:00 -18,9 -20,7 3 1 5 3 O 1029,9 39 0,0
16.12.2018 10:00:00 -24,5 -27,1 2 1 5 3 ZZO 1030,5 20 0,0
16.12.2018 09:00:00 -25,0 -27,6 1 1 4 2 O 1030,4 48 0,0
16.12.2018 08:00:00 -25,1 -27,8 4 2 7 4 ONO 1030,8 45 0,0
16.12.2018 07:00:00 -24,5 -27,1 2 1 4 2 Z 1031,0 48 0,0
16.12.2018 06:00:00 -26,6 -29,4 2 1 4 2 N 1031,2 44 0,0
16.12.2018 05:00:00 -27,0 -29,8 4 2 4 2 ZO 1031,4 45 0,0
16.12.2018 04:00:00 -26,9 -29,7 2 1 3 2 NO 1032,0 50 0,0
16.12.2018 03:00:00 -27,1 -29,9 1 1 9 5 NO 1032,3 49 0,0
16.12.2018 02:00:00 -27,1 -29,9 1 1 4 2 WZW 1032,7 14 0,0
16.12.2018 01:00:00 -27,5 -30,4 2 1 6 3 O 1033,0 50 0,0
16.12.2018 00:00:00 -27,9 -30,9 1 1 3 2 OZO 1033,6 37 0,0
15.12.2018 23:00:00 -27,8 -30,8 1 0 2 1 NNW 1034,2 43 0,0
15.12.2018 22:00:00 -28,0 -30,9 1 1 2 1 W 1034,4 50 0,0
15.12.2018 21:00:00 -27,7 -30,5 1 1 2 1 WNW 1034,7 47 0,0
15.12.2018 20:00:00 -28,0 -31,1 1 1 3 1 ONO 1035,1 31 0,0
15.12.2018 19:00:00 -28,0 -30,9 1 0 2 1 ZZO 1035,2 28 0,0
15.12.2018 18:00:00 -27,6 -30,6 1 0 2 1 NNW 1035,3 35 0,0
15.12.2018 17:00:00 -27,5 -30,5 1 0 2 1 N 1035,2 29 0,0
15.12.2018 16:00:00 -27,6 -30,5 1 0 1 1 OZO 1035,5 50 0,0
15.12.2018 15:00:00 -27,1 -29,9 1 0 2 1 NO 1035,5 49 0,0
15.12.2018 14:00:00 -26,8 -29,8 1 1 3 1 O 1035,6 50 0,0
15.12.2018 13:00:00 -26,4 -29,1 1 1 3 1 ONO 1035,7 47 0,0
15.12.2018 12:00:00 -27,1 -29,8 0 0 4 2 ZW 1036,0 48 0,0
15.12.2018 11:00:00 -28,2 -31,1 1 1 3 1 ZO 1036,0 49 0,0
15.12.2018 10:00:00 -28,5 -31,4 2 1 3 2 NO 1036,0 50 0,0
15.12.2018 09:00:00 -29,2 -32,2 1 1 3 2 O 1035,8 50 0,0
15.12.2018 08:00:00 -28,6 -31,7 1 1 3 2 NO 1035,6 50 0,0
15.12.2018 07:00:00 -28,3 -31,1 1 1 3 1 ZW 1035,6 50 0,0
15.12.2018 06:00:00 -27,9 -30,7 1 1 3 2 NO 1035,6 44 0,0
15.12.2018 05:00:00 -27,8 -30,6 2 1 3 1 NO 1035,4 50 0,0
15.12.2018 04:00:00 -27,8 -30,8 1 0 5 3 ZO 1035,2 50 0,0
15.12.2018 03:00:00 -27,3 -30,1 2 1 3 2 NNO 1035,2 50 0,0
15.12.2018 02:00:00 -27,0 -29,8 1 0 3 2 W 1035,2 44 0,0
15.12.2018 01:00:00 -26,8 -29,6 0 0 4 2 WNW 1035,3 50 0,0
15.12.2018 00:00:00 -26,4 -29,3 1 1 3 2 NNW - 50 0,0
14.12.2018 23:00:00 -26,1 -28,8 1 0 3 1 NNO 1035,7 30 0,0
14.12.2018 22:00:00 -26,0 -28,7 0 0 4 2 N 1035,7 - 0,0
14.12.2018 21:00:00 -25,8 -28,5 1 0 3 2 ZW 1035,6 4,9 0,0
14.12.2018 20:00:00 -25,9 -28,7 1 0 3 2 N 1035,3 50 0,0
14.12.2018 19:00:00 -25,8 -28,5 1 0 3 2 ZZO 1035,0 35 0,0
14.12.2018 18:00:00 -25,7 -28,4 1 1 2 1 WNW 1035,2 27 0,0
14.12.2018 17:00:00 -25,3 -27,9 0 0 4 2 W 1035,2 45 0,0
14.12.2018 16:00:00 -25,1 -27,8 1 0 2 1 W 1035,3 33 0,0
14.12.2018 15:00:00 -24,6 -27,2 1 1 2 1 O 1035,2 - 0,0
14.12.2018 14:00:00 -24,0 -26,6 2 1 3 2 NW 1035,4 2,4 0,0
14.12.2018 13:00:00 -23,4 -25,9 2 1 4 2 Z 1035,2 19 0,0
14.12.2018 12:00:00 -24,0 -26,5 1 1 3 2 W 1035,3 16 0,0
14.12.2018 11:00:00 -24,4 -27,0 1 0 4 2 NW 1035,2 - 0,0
14.12.2018 10:00:00 -24,7 -27,3 1 1 3 2 WNW 1035,2 14 0,0
14.12.2018 09:00:00 -24,8 -27,4 1 0 2 1 Z 1035,0 2,9 0,0
14.12.2018 08:00:00 -24,3 -26,8 2 1 3 2 WNW 1035,1 - 0,0
14.12.2018 07:00:00 - - - - - - - - - -
14.12.2018 06:00:00 -24,2 -26,7 1 1 3 1 NNW 1034,8 - 0,0
14.12.2018 05:00:00 -23,9 -26,5 1 1 3 1 NO 1034,7 - 0,0
14.12.2018 04:00:00 -23,2 -25,5 1 1 3 2 NW 1034,9 1,6 0,0
14.12.2018 03:00:00 -23,1 -25,5 1 0 2 1 ZW 1034,9 11 0,0
14.12.2018 02:00:00 -22,6 -25,0 0 0 4 2 Z 1035,5 0,6 0,0
14.12.2018 01:00:00 -21,7 -24,0 1 1 3 2 W 1035,4 1,0 0,0
14.12.2018 00:00:00 -21,3 -23,5 1 1 3 2 NW 1035,2 0,9 0,0
13.12.2018 23:00:00 -21,4 -23,7 1 0 4 2 OZO 1035,5 30 0,0
13.12.2018 22:00:00 -20,9 -23,0 2 1 4 2 ZW 1035,3 0,7 0,0
13.12.2018 21:00:00 -21,1 -23,3 1 1 3 1 W 1035,4 32 0,0
13.12.2018 20:00:00 -20,6 -22,7 1 1 3 2 Z 1035,5 2,1 0,0
13.12.2018 19:00:00 -19,9 -22,1 1 1 2 1 W 1035,4 2,2 0,0
13.12.2018 18:00:00 -19,6 -21,7 1 0 3 2 O 1035,4 17 0,0
13.12.2018 17:00:00 -19,4 -21,3 1 1 4 2 W 1035,5 - 0,0
13.12.2018 16:00:00 - - - - - - - - - -
13.12.2018 15:00:00 -19,8 -21,9 1 0 4 2 WZW 1035,3 26 0,0
13.12.2018 14:00:00 -19,2 -21,2 1 1 3 2 W 1035,4 16 0,0
13.12.2018 13:00:00 - - - - - - - - - -
13.12.2018 12:00:00 -19,2 -21,2 1 1 3 2 ONO 1035,6 24 0,0
13.12.2018 11:00:00 -19,3 -21,2 1 0 3 1 O 1035,7 - 0,0
13.12.2018 10:00:00 -20,1 -22,1 1 1 2 1 N 1035,9 5 0,0
13.12.2018 09:00:00 -20,7 -22,7 1 1 3 2 NW 1036,0 - 0,0
13.12.2018 08:00:00 -20,8 -22,9 2 1 3 1 NO 1035,8 47 0,0
13.12.2018 07:00:00 -20,5 -22,6 1 1 4 2 NO 1035,7 8 0,0
13.12.2018 06:00:00 -20,1 -22,2 1 1 4 2 O 1035,7 42 0,0
13.12.2018 05:00:00 -19,5 -21,3 1 1 4 2 ONO 1035,9 1,3 0,0
13.12.2018 04:00:00 -18,9 -20,7 1 1 4 2 ONO 1036,2 1,3 0,0
13.12.2018 03:00:00 -19,1 -21,0 3 2 4 2 OZO 1036,3 - 0,0
13.12.2018 02:00:00 -19,2 -21,2 1 1 3 1 O 1036,2 26 0,0
13.12.2018 01:00:00 -18,5 -20,4 2 1 4 2 O 1036,1 3,4 0,0
13.12.2018 00:00:00 -18,0 -19,6 1 0 5 3 O 1036,0 - 0,0
12.12.2018 23:00:00 -17,6 -19,3 2 1 6 3 NO 1036,1 - 0,0
12.12.2018 22:00:00 -17,3 -19,1 2 1 5 3 NNO 1036,2 0,6 0,0
12.12.2018 21:00:00 -17,3 -19,1 1 1 4 2 NNO 1036,2 10 0,0
12.12.2018 20:00:00 -16,7 -18,4 1 1 4 2 NNO 1036,1 19 0,0
12.12.2018 19:00:00 -16,3 -18,0 1 1 5 3 NNO 1035,8 2,7 0,0
12.12.2018 18:00:00 -16,2 -17,9 1 1 3 2 WNW 1035,4 14 0,0
12.12.2018 17:00:00 -15,8 -17,5 2 1 3 2 NNW 1035,2 - 0,0
12.12.2018 16:00:00 -15,3 -16,8 1 1 4 2 NNO 1035,3 - 0,0
12.12.2018 15:00:00 -15,2 -16,7 1 1 3 1 N 1035,0 7 0,0
12.12.2018 14:00:00 -14,4 -15,8 1 1 4 2 N 1034,9 - 0,0
12.12.2018 13:00:00 -13,7 -14,9 2 1 3 2 OZO 1034,6 2,3 0,0
12.12.2018 12:00:00 -14,3 -15,5 1 1 2 1 NO 1034,4 6 0,0
12.12.2018 11:00:00 -15,3 -16,8 0 0 1 1 ONO 1034,0 50 0,0
12.12.2018 10:00:00 -15,6 -17,3 1 1 2 1 N 1033,9 10 0,0
12.12.2018 09:00:00 -14,4 -15,8 1 1 5 3 OZO 1033,5 0,6 0,0
12.12.2018 08:00:00 -13,1 -14,4 3 2 6 4 W 1033,0 17 0,0
12.12.2018 07:00:00 -11,1 -12,3 2 1 7 4 O 1032,4 50 0,0
12.12.2018 06:00:00 -12,0 -13,1 1 1 6 3 ONO 1032,4 50 0,0
12.12.2018 05:00:00 -13,4 -14,5 1 1 5 3 OZO 1032,2 50 0,2
12.12.2018 04:00:00 -15,2 -16,6 1 1 2 1 NW 1032,2 1,2 0,0
12.12.2018 03:00:00 -14,4 -15,8 1 0 2 1 NNW 1031,9 50 0,0
12.12.2018 02:00:00 -13,3 -14,4 1 1 5 3 W 1031,2 50 0,0
12.12.2018 01:00:00 -13,0 -14,1 1 1 3 1 NNW 1030,6 50 0,0
12.12.2018 00:00:00 -11,8 -12,7 1 0 4 2 W 1030,2 50 0,0
11.12.2018 23:00:00 -10,7 -11,5 2 1 4 2 WNW 1029,6 12 0,0
11.12.2018 22:00:00 -8,9 -9,5 2 1 7 4 WNW 1029,0 15 0,0
11.12.2018 21:00:00 -8,1 -8,7 1 1 6 3 W 1028,6 22 0,0
11.12.2018 20:00:00 -7,3 -7,6 2 1 8 4 WZW 1028,3 13 0,0
11.12.2018 19:00:00 -6,7 -6,9 2 1 11 6 W 1027,7 7 0,0
11.12.2018 18:00:00 -5,8 -6,2 4 2 9 5 W 1027,0 31 0,0
11.12.2018 17:00:00 -4,7 -5,2 2 1 10 5 NNW 1025,9 41 0,0
11.12.2018 16:00:00 -2,7 -3,5 3 2 13 7 NW 1025,6 35 0,0
11.12.2018 15:00:00 -2,6 -3,5 5 3 10 6 N 1025,1 38 0,0
11.12.2018 14:00:00 -3,2 -3,9 2 1 11 6 NW 1024,4 31 0,0
11.12.2018 13:00:00 -3,9 -4,4 2 1 12 7 NW 1024,1 46 0,0
11.12.2018 12:00:00 -4,4 -5,0 3 2 13 7 W 1023,6 45 0,0
11.12.2018 11:00:00 -3,2 -3,7 5 3 13 7 NW 1022,9 44 0,0
11.12.2018 10:00:00 -4,1 -4,2 4 2 7 4 NW 1022,1 30 0,0
11.12.2018 09:00:00 -3,3 -4,0 1 1 9 5 W 1020,7 38 0,0
11.12.2018 08:00:00 -2,8 -3,3 2 1 9 5 WNW 1020,1 50 0,0
11.12.2018 07:00:00 -3,0 -3,5 4 2 13 7 NNW 1019,3 50 0,0
11.12.2018 06:00:00 -3,1 -3,8 3 2 10 6 WNW 1018,5 50 0,0
11.12.2018 05:00:00 -3,0 -3,6 3 2 11 6 WNW 1017,9 50 0,0
11.12.2018 04:00:00 -3,0 -3,7 4 2 14 8 NW 1017,1 50 0,0
11.12.2018 03:00:00 -3,2 -3,5 3 1 8 4 N 1016,6 49 0,0
11.12.2018 02:00:00 -3,0 -3,5 4 2 11 6 WNW 1015,5 50 0,0
11.12.2018 01:00:00 -1,9 -2,5 3 2 11 6 NNW 1014,2 50 0,0

tt = temperatuur
td = dauwpunt
ff = windsnelheid
fx = windstoten
dd = windrichting
ppp = luchtdruk
vv = zicht
rr = neerslag

Weerstations in de omgeving